Time,TemperatureF,DewpointF,PressureIn,WindDirection,WindDirectionDegrees,WindSpeedMPH,WindSpeedGustMPH,Humidity,HourlyPrecipIn,Conditions,Clouds,dailyrainin,SolarRadiationWatts/m^2,SoftwareType,DateUTC
2013-12-04 00:14:00,24.8,22.0,29.16,South,179,11.0,20.0,87,0.00,,,0.01,0,weatherlink.com 1.10,2013-12-04 07:14:00,
2013-12-04 00:30:00,24.5,21.0,29.15,SE,140,10.0,24.0,87,0.00,,,0.01,0,weatherlink.com 1.10,2013-12-04 07:30:00,
2013-12-04 00:45:00,24.2,21.0,29.14,SE,144,8.0,22.0,87,0.00,,,0.01,0,weatherlink.com 1.10,2013-12-04 07:45:00,
2013-12-04 01:00:00,23.8,21.0,29.14,SSE,160,15.0,20.0,87,0.00,,,0.00,0,weatherlink.com 1.10,2013-12-04 08:00:00,
2013-12-04 01:15:00,23.6,20.0,29.13,SE,144,10.0,22.0,87,0.01,,,0.01,0,weatherlink.com 1.10,2013-12-04 08:15:00,
2013-12-04 01:30:00,23.8,21.0,29.13,SE,139,12.0,21.0,87,0.01,,,0.01,0,weatherlink.com 1.10,2013-12-04 08:30:00,
2013-12-04 01:45:00,23.5,20.0,29.13,SSE,163,10.0,24.0,86,0.01,,,0.01,0,weatherlink.com 1.10,2013-12-04 08:45:00,
2013-12-04 02:00:00,23.6,20.0,29.12,SE,128,12.0,24.0,86,0.01,,,0.01,0,weatherlink.com 1.10,2013-12-04 09:00:00,
2013-12-04 02:15:00,23.9,20.0,29.13,SE,146,16.0,25.0,85,0.00,,,0.01,0,weatherlink.com 1.10,2013-12-04 09:15:00,
2013-12-04 02:30:00,23.8,20.0,29.12,SSE,165,19.0,26.0,85,0.00,,,0.01,0,weatherlink.com 1.10,2013-12-04 09:30:00,
2013-12-04 02:45:00,23.3,20.0,29.12,SSE,168,19.0,25.0,85,0.00,,,0.01,0,weatherlink.com 1.10,2013-12-04 09:45:00,
2013-12-04 03:00:00,22.9,19.0,29.11,SE,140,15.0,27.0,84,0.00,,,0.01,0,weatherlink.com 1.10,2013-12-04 10:00:00,
2013-12-04 03:15:00,22.8,19.0,29.11,South,172,18.0,26.0,84,0.00,,,0.01,0,weatherlink.com 1.10,2013-12-04 10:15:00,
2013-12-04 03:30:00,22.7,19.0,29.11,South,169,13.0,25.0,84,0.00,,,0.01,0,weatherlink.com 1.10,2013-12-04 10:30:00,
2013-12-04 03:45:00,22.3,18.0,29.11,ESE,118,22.0,22.0,83,0.00,,,0.01,0,weatherlink.com 1.10,2013-12-04 10:45:00,
2013-12-04 04:00:00,21.8,17.0,29.09,SE,138,16.0,22.0,83,0.00,,,0.01,0,weatherlink.com 1.10,2013-12-04 11:00:00,
2013-12-04 04:15:00,21.2,18.0,29.09,SSE,162,11.0,29.0,86,0.00,,,0.01,0,weatherlink.com 1.10,2013-12-04 11:15:00,
2013-12-04 04:30:00,20.8,18.0,29.09,South,173,14.0,22.0,87,0.00,,,0.01,0,weatherlink.com 1.10,2013-12-04 11:30:00,
2013-12-04 04:45:00,21.0,18.0,29.09,SSE,153,10.0,22.0,88,0.00,,,0.01,0,weatherlink.com 1.10,2013-12-04 11:45:00,
2013-12-04 05:00:00,20.8,18.0,29.09,South,186,16.0,22.0,87,0.00,,,0.01,0,weatherlink.com 1.10,2013-12-04 12:00:00,
2013-12-04 05:15:00,20.8,18.0,29.08,SE,144,12.0,22.0,87,0.00,,,0.01,0,weatherlink.com 1.10,2013-12-04 12:15:00,
2013-12-04 05:30:00,21.0,18.0,29.07,SSW,204,9.0,22.0,87,0.00,,,0.01,0,weatherlink.com 1.10,2013-12-04 12:30:00,
2013-12-04 05:45:00,20.9,18.0,29.06,SE,143,24.0,24.0,87,0.00,,,0.01,0,weatherlink.com 1.10,2013-12-04 12:45:00,
2013-12-04 06:00:00,20.8,18.0,29.07,SSE,167,13.0,23.0,87,0.00,,,0.01,0,weatherlink.com 1.10,2013-12-04 13:00:00,
2013-12-04 06:15:00,20.8,18.0,29.08,SE,137,15.0,23.0,87,0.00,,,0.01,0,weatherlink.com 1.10,2013-12-04 13:15:00,
2013-12-04 06:30:00,20.9,18.0,29.08,South,178,18.0,28.0,88,0.00,,,0.01,0,weatherlink.com 1.10,2013-12-04 13:30:00,
2013-12-04 06:45:00,21.2,18.0,29.08,SE,142,18.0,28.0,88,0.00,,,0.01,0,weatherlink.com 1.10,2013-12-04 13:45:00,
2013-12-04 07:00:00,20.9,18.0,29.08,SSE,158,21.0,23.0,88,0.00,,,0.01,0,weatherlink.com 1.10,2013-12-04 14:00:00,
2013-12-04 07:15:00,21.0,18.0,29.08,SSE,153,13.0,23.0,88,0.00,,,0.01,0,weatherlink.com 1.10,2013-12-04 14:15:00,
2013-12-04 07:30:00,21.1,18.0,29.08,SSE,155,15.0,26.0,88,0.00,,,0.01,11,weatherlink.com 1.10,2013-12-04 14:30:00,
2013-12-04 07:46:00,21.7,19.0,29.07,SSE,163,14.0,26.0,88,0.00,,,0.01,58,weatherlink.com 1.10,2013-12-04 14:46:00,
2013-12-04 08:01:00,20.9,16.0,29.07,East,94,15.0,25.0,80,0.00,,,0.01,86,weatherlink.com 1.10,2013-12-04 15:01:00,
2013-12-04 08:16:00,14.1,10.0,29.09,ESE,105,9.0,15.0,82,0.00,,,0.01,90,weatherlink.com 1.10,2013-12-04 15:16:00,
2013-12-04 08:31:00,10.0,6.0,29.09,ESE,117,9.0,14.0,82,0.00,,,0.01,100,weatherlink.com 1.10,2013-12-04 15:31:00,
2013-12-04 08:46:00,10.5,6.0,29.10,ESE,113,10.0,17.0,83,0.00,,,0.01,91,weatherlink.com 1.10,2013-12-04 15:46:00,
2013-12-04 09:01:00,9.5,6.0,29.10,ESE,116,10.0,14.0,84,0.00,,,0.01,144,weatherlink.com 1.10,2013-12-04 16:01:00,
2013-12-04 09:16:00,5.4,1.0,29.15,East,92,5.0,17.0,81,0.00,,,0.01,90,weatherlink.com 1.10,2013-12-04 16:16:00,
2013-12-04 09:31:00,6.2,3.0,29.18,South,176,4.0,7.0,86,0.01,,,0.02,91,weatherlink.com 1.10,2013-12-04 16:31:00,
2013-12-04 09:46:00,13.3,10.0,29.20,NE,50,0.0,11.0,87,0.01,,,0.02,125,weatherlink.com 1.10,2013-12-04 16:46:00,
2013-12-04 10:01:00,7.9,4.0,29.21,ESE,109,7.0,10.0,82,0.03,,,0.04,146,weatherlink.com 1.10,2013-12-04 17:01:00,
2013-12-04 10:16:00,6.0,2.0,29.22,ESE,103,5.0,9.0,82,0.05,,,0.06,167,weatherlink.com 1.10,2013-12-04 17:16:00,
2013-12-04 10:31:00,8.4,5.0,29.22,ESE,106,7.0,8.0,87,0.04,,,0.06,206,weatherlink.com 1.10,2013-12-04 17:31:00,
2013-12-04 10:46:00,12.0,9.0,29.23,SE,138,0.0,9.0,89,0.06,,,0.08,176,weatherlink.com 1.10,2013-12-04 17:46:00,
2013-12-04 11:01:00,14.9,12.0,29.24,South,185,3.0,11.0,87,0.05,,,0.09,227,weatherlink.com 1.10,2013-12-04 18:01:00,
2013-12-04 11:17:00,15.9,12.0,29.23,SW,226,2.0,7.0,85,0.04,,,0.10,225,weatherlink.com 1.10,2013-12-04 18:17:00,
2013-12-04 11:32:00,15.6,12.0,29.21,South,179,2.0,8.0,84,0.06,,,0.12,230,weatherlink.com 1.10,2013-12-04 18:32:00,
2013-12-04 11:47:00,16.1,12.0,29.23,SSE,160,4.0,7.0,84,0.05,,,0.13,149,weatherlink.com 1.10,2013-12-04 18:47:00,
2013-12-04 12:02:00,15.7,12.0,29.23,SSE,164,2.0,9.0,84,0.05,,,0.14,148,weatherlink.com 1.10,2013-12-04 19:02:00,
2013-12-04 12:17:00,15.4,12.0,29.24,South,173,7.0,12.0,85,0.04,,,0.14,141,weatherlink.com 1.10,2013-12-04 19:17:00,
2013-12-04 12:32:00,16.4,13.0,29.23,South,173,1.0,6.0,85,0.03,,,0.15,134,weatherlink.com 1.10,2013-12-04 19:32:00,
2013-12-04 12:47:00,16.7,13.0,29.25,SSW,213,0.0,6.0,84,0.01,,,0.15,109,weatherlink.com 1.10,2013-12-04 19:47:00,
2013-12-04 13:02:00,16.6,13.0,29.25,ESE,107,4.0,6.0,84,0.01,,,0.15,134,weatherlink.com 1.10,2013-12-04 20:02:00,
2013-12-04 13:17:00,17.0,13.0,29.23,East,90,0.0,6.0,85,0.01,,,0.15,134,weatherlink.com 1.10,2013-12-04 20:17:00,
2013-12-04 13:32:00,16.3,12.0,29.23,South,190,2.0,9.0,84,0.00,,,0.15,127,weatherlink.com 1.10,2013-12-04 20:32:00,
2013-12-04 13:47:00,16.6,13.0,29.23,SSE,153,2.0,5.0,84,0.00,,,0.15,123,weatherlink.com 1.10,2013-12-04 20:47:00,
2013-12-04 14:02:00,16.4,12.0,29.24,South,183,5.0,9.0,84,0.00,,,0.15,105,weatherlink.com 1.10,2013-12-04 21:02:00,
2013-12-04 14:17:00,16.4,13.0,29.24,WSW,258,2.0,5.0,85,0.00,,,0.15,102,weatherlink.com 1.10,2013-12-04 21:17:00,
2013-12-04 14:32:00,17.3,13.0,29.27,SSW,213,4.0,12.0,84,0.00,,,0.15,84,weatherlink.com 1.10,2013-12-04 21:32:00,
2013-12-04 14:48:00,17.9,14.0,29.26,SW,215,1.0,8.0,83,0.00,,,0.15,81,weatherlink.com 1.10,2013-12-04 21:48:00,
2013-12-04 15:03:00,17.0,12.0,29.28,South,170,5.0,10.0,82,0.00,,,0.15,70,weatherlink.com 1.10,2013-12-04 22:03:00,
2013-12-04 15:18:00,15.4,11.0,29.29,SW,227,0.0,8.0,82,0.00,,,0.15,47,weatherlink.com 1.10,2013-12-04 22:18:00,
2013-12-04 15:33:00,14.1,10.0,29.30,South,190,2.0,10.0,83,0.00,,,0.15,35,weatherlink.com 1.10,2013-12-04 22:33:00,
2013-12-04 15:48:00,13.6,10.0,29.30,SW,214,1.0,6.0,84,0.01,,,0.16,26,weatherlink.com 1.10,2013-12-04 22:48:00,
2013-12-04 16:03:00,13.2,9.0,29.32,SSW,193,3.0,5.0,84,0.01,,,0.16,16,weatherlink.com 1.10,2013-12-04 23:03:00,
2013-12-04 16:18:00,12.5,9.0,29.34,SSE,154,2.0,8.0,84,0.01,,,0.16,9,weatherlink.com 1.10,2013-12-04 23:18:00,
2013-12-04 16:33:00,11.5,8.0,29.35,SE,142,6.0,9.0,84,0.01,,,0.16,5,weatherlink.com 1.10,2013-12-04 23:33:00,
2013-12-04 16:48:00,10.6,7.0,29.36,South,190,3.0,9.0,84,0.00,,,0.16,0,weatherlink.com 1.10,2013-12-04 23:48:00,
2013-12-04 17:03:00,10.1,6.0,29.37,South,173,3.0,10.0,84,0.00,,,0.16,0,weatherlink.com 1.10,2013-12-05 00:03:00,
2013-12-04 17:18:00,9.6,5.0,29.39,SE,146,2.0,10.0,83,0.00,,,0.16,0,weatherlink.com 1.10,2013-12-05 00:18:00,
2013-12-04 17:33:00,9.0,5.0,29.40,South,186,4.0,13.0,83,0.00,,,0.16,0,weatherlink.com 1.10,2013-12-05 00:33:00,
2013-12-04 17:48:00,8.0,4.0,29.42,SSW,202,2.0,9.0,82,0.00,,,0.16,0,weatherlink.com 1.10,2013-12-05 00:48:00,
2013-12-04 18:03:00,6.8,2.0,29.43,ESE,121,1.0,10.0,82,0.00,,,0.16,0,weatherlink.com 1.10,2013-12-05 01:03:00,
2013-12-04 18:19:00,5.8,1.0,29.46,SSE,162,0.0,6.0,82,0.00,,,0.16,0,weatherlink.com 1.10,2013-12-05 01:19:00,
2013-12-04 18:34:00,5.3,1.0,29.47,SW,229,1.0,6.0,82,0.00,,,0.16,0,weatherlink.com 1.10,2013-12-05 01:34:00,
2013-12-04 18:49:00,5.1,1.0,29.49,ENE,74,2.0,5.0,83,0.00,,,0.16,0,weatherlink.com 1.10,2013-12-05 01:49:00,
2013-12-04 19:04:00,5.0,1.0,29.50,SE,134,2.0,7.0,82,0.00,,,0.16,0,weatherlink.com 1.10,2013-12-05 02:04:00,
2013-12-04 19:19:00,4.4,0.0,29.52,South,186,0.0,7.0,81,0.00,,,0.16,0,weatherlink.com 1.10,2013-12-05 02:19:00,
2013-12-04 19:34:00,3.6,-1.0,29.53,South,174,1.0,5.0,80,0.00,,,0.16,0,weatherlink.com 1.10,2013-12-05 02:34:00,
2013-12-04 19:49:00,2.6,-2.0,29.54,SSE,162,5.0,7.0,80,0.00,,,0.16,0,weatherlink.com 1.10,2013-12-05 02:49:00,
2013-12-04 20:04:00,1.9,-3.0,29.55,South,176,0.0,6.0,79,0.00,,,0.16,0,weatherlink.com 1.10,2013-12-05 03:04:00,
2013-12-04 20:19:00,1.9,-3.0,29.56,SSW,197,2.0,7.0,80,0.00,,,0.16,0,weatherlink.com 1.10,2013-12-05 03:19:00,
2013-12-04 20:34:00,1.7,-3.0,29.57,SSW,209,0.0,4.0,80,0.00,,,0.16,0,weatherlink.com 1.10,2013-12-05 03:34:00,
2013-12-04 20:49:00,1.4,-4.0,29.59,West,261,0.0,3.0,79,0.00,,,0.16,0,weatherlink.com 1.10,2013-12-05 03:49:00,
2013-12-04 21:04:00,1.4,-4.0,29.61,WSW,257,1.0,3.0,79,0.00,,,0.16,0,weatherlink.com 1.10,2013-12-05 04:04:00,
2013-12-04 21:19:00,1.2,-4.0,29.62,West,269,0.0,4.0,78,0.00,,,0.16,0,weatherlink.com 1.10,2013-12-05 04:19:00,
2013-12-04 21:35:00,1.4,-4.0,29.64,West,259,1.0,7.0,79,0.00,,,0.16,0,weatherlink.com 1.10,2013-12-05 04:35:00,
2013-12-04 21:50:00,1.3,-4.0,29.65,West,261,0.0,4.0,78,0.00,,,0.16,0,weatherlink.com 1.10,2013-12-05 04:50:00,
2013-12-04 22:05:00,0.9,-4.0,29.65,WSW,250,0.0,3.0,78,0.00,,,0.16,0,weatherlink.com 1.10,2013-12-05 05:05:00,
2013-12-04 22:20:00,0.4,-5.0,29.66,West,267,1.0,3.0,78,0.00,,,0.16,0,weatherlink.com 1.10,2013-12-05 05:20:00,
2013-12-04 22:35:00,-0.1,-5.0,29.67,WSW,248,0.0,4.0,79,0.00,,,0.16,0,weatherlink.com 1.10,2013-12-05 05:35:00,
2013-12-04 22:50:00,-0.2,-5.0,29.67,West,267,2.0,5.0,79,0.00,,,0.16,0,weatherlink.com 1.10,2013-12-05 05:50:00,
2013-12-04 23:05:00,-0.1,-5.0,29.68,North,355,1.0,9.0,78,0.00,,,0.16,0,weatherlink.com 1.10,2013-12-05 06:05:00,
2013-12-04 23:20:00,-1.0,-6.0,29.69,WSW,252,2.0,7.0,78,0.00,,,0.16,0,weatherlink.com 1.10,2013-12-05 06:20:00,
2013-12-04 23:35:00,-0.7,-6.0,29.69,SW,236,4.0,6.0,78,0.00,,,0.16,0,weatherlink.com 1.10,2013-12-05 06:35:00,
2013-12-04 23:50:00,-0.8,-6.0,29.69,West,277,1.0,8.0,78,0.00,,,0.16,0,weatherlink.com 1.10,2013-12-05 06:50:00,